Regional Weather Roundup
Issued by NWS

Home | Current Version | Previous Version | Text Only | Print | Product List | Glossary On
Versions: 1 2 3 4 5 6 7 8 9 10 11 12 13 14 15 16 17 18 19 20 21 22 23 24 25 26 27 28 29 30 31 32 33 34 35 36 37 38 39 40 41 42 43 44 45 46 47 48 49 50
000
ASUS44 KJAN 260020
RWRMS

MISSISSIPPI HOURLY WEATHER ROUNDUP
NATIONAL WEATHER SERVICE JACKSON MS
700 PM CDT MON JUL 25 2016

NOTE: "FAIR: INDICATES FEW OR NO CLOUDS BELOW 12,000 FEET WITH NO
SIGNIFICANT WEATHER AND/OR OBSTRUCTIONS TO VISIBILITY.

MSZ001>002-007>008-010>013-018>021-025>028-034>036-260100-
NORTHWEST MISSISSIPPI

CITY           SKY/WX    TMP DP  RH WIND       PRES   REMARKS
CLEVELAND      FAIR      91  76  61 SE5       29.92R HX 103
GREENWOOD      MOSUNNY   92  68  45 SE6       29.92R HX  96
6HR MIN TEMP:  92; 6HR MAX TEMP:  96;

GREENVILLE     SUNNY     92  74  55 SE3       29.92S HX 101
6HR MIN TEMP:  91; 6HR MAX TEMP:  95;

OXFORD         FAIR      90  68  48 SE6       29.98R HX  93
WINONA         FAIR      90  72  55 CALM      29.94R HX  96
$$

MSZ003>006-009-014>017-022>024-029>033-037>039-260100-
NORTHEAST MISSISSIPPI

CITY           SKY/WX    TMP DP  RH WIND       PRES   REMARKS
ABERDEEN       FAIR      93  73  52 CALM      29.96S HX 102
COLUMBUS AFB   SUNNY     92  76  60 SE7       29.93S HX 105
6HR MIN TEMP:  92; 6HR MAX TEMP:  95;

GOLDN TRIANGLE SUNNY     91  70  49 S9        29.93F HX  97
TUPELO         SUNNY     92  67  43 S8        29.95R HX  95
6HR MIN TEMP:  92; 6HR MAX TEMP:  96;

$$

MSZ040-058-260100-
CENTRAL MISSISSIPPI

CITY           SKY/WX    TMP DP  RH WIND       PRES   REMARKS
JACKSON INTL   MOSUNNY   89  71  55 SE7       29.93R HX  95
6HR MIN TEMP:  89; 6HR MAX TEMP:  95;

JACKSON HAWKNS MOSUNNY   87  72  60 S14G20    29.94R HX  93
6HR MIN TEMP:  90; 6HR MAX TEMP:  96;

MADISON        FAIR      90  70  51 CALM      29.93R HX  95
MERIDIAN KEY   SUNNY     93  68  43 SE7       29.94R HX  97
6HR MIN TEMP:  93; 6HR MAX TEMP:  97;

MERIDIAN NAS   MOSUNNY   94  65  38 SE6       29.94S HX  96
6HR MIN TEMP:  93; 6HR MAX TEMP:  98;

VICKSBURG VKS  MOCLDY    90  73  58 S16G26    29.92R HX  98
$$

MSZ059>079-260100-
SOUTH MISSISSIPPI

CITY           SKY/WX    TMP DP  RH WIND       PRES   REMARKS
BROOKHAVEN     FAIR     N/A N/A N/A SE7       29.96R
COLUMBIA       MOCLDY    81  72  74 E15G25    30.01R
HATTIESBURG    CLOUDY    83  74  74 S3        29.96R
6HR MIN TEMP:  80; 6HR MAX TEMP:  91; 6HR PCP:  0.04;

MCCOMB         CLOUDY    79  73  82 CALM      29.95R
6HR MIN TEMP:  75; 6HR MAX TEMP:  93; 6HR PCP:  0.14;

NATCHEZ        CLOUDY    79  73  83 SE5       29.94R
6HR MIN TEMP:  79; 6HR MAX TEMP:  93; 6HR PCP:  0.61;

PINE BELT      CLOUDY    79  73  83 CALM      29.99R
6HR MIN TEMP:  77; 6HR MAX TEMP:  91; 6HR PCP:  0.03;

$$

MSZ080>082-260100-
COASTAL MISSISSIPPI

CITY           SKY/WX    TMP DP  RH WIND       PRES   REMARKS
BAY ST LOUIS   PTSUNNY   82  72  69 MISG      29.91S
BILOXI         PTSUNNY   87  76  69 S12       29.91S HX  98
6HR MIN TEMP:  87; 6HR MAX TEMP:  91;

PASCAGOULA     PTCLDY    86  77  74 SE10      29.93R HX  97
6HR MIN TEMP:  86; 6HR MAX TEMP:  91;

GULFPORT       PTSUNNY   86  76  71 SE16      29.91S HX  96
6HR MIN TEMP:  86; 6HR MAX TEMP:  91; 6HR PCP: TRACE;

$$

LAZ007>009-015>016-023>026-260100-
NORTHEAST LOUISIANA

CITY           SKY/WX    TMP DP  RH WIND       PRES   REMARKS
BASTROP        FAIR      89  78  72 CALM      29.92R HX 103
TALLULAH/VBURG SUNNY     93  73  52 E6        29.91R HX 102
6HR MIN TEMP:  92; 6HR MAX TEMP:  96;

VIDALIA        MOCLDY    83  73  73 E5        29.95R
$$




USA.gov is the U.S. government's official web portal to all federal, state and local government web resources and services.